Starlink 5793

operational
NORAD ID: 56038 Int'l Des: 2023-042 Owner: SPXS Country: US Constellation: starlink
LEOCIRCULAR

Über Starlink 5793

Beschreibung wird geladen...

Live-Position

3D-Globus wird geladen...

Nächste Überflüge

Höhenverlauf

Altitude vs Time

uPlot chart will show altitude changes over time

Zweizeiliger Elementsatz

1 56038U 23042BE 26072.00002314 .00015952 00000-0 10694-2 0 9994
2 56038 43.0007 24.7211 0001955 252.5347 78.1869 15.06642348 5635
Epoch: 13. März 2026 • Age: 16 hours

Aktueller Status

Höhe 556.8 km
Geschwindigkeit 7.58 km/s
Subsatellitenpunkt -39.19°S, 142.86°W
Startdatum 24. März 2023
Alter 2.9 years
Typ internet

Technische Details

Klassifizierung Payload
Masse 305.00 kg
Trockenmasse 290.00 kg
Gesamtmasse 305.00 kg
Länge 0.20 m
Durchmesser 2.80 m
Spannweite 9.00 m
Form Box + pan
Hersteller SPXS
Bus-Typ Starlink
Phasenstatus In Orbit
Besitzer/Staat SPXS/US

Große Konstellationen

Loading constellations...